Location: Cisewo
(53.3833°N, 14.9000°E)
Time: 06:55:26
(UTC+00:00)

BEESAT 3 - Pass Details

Date: 25 September 2021
Orbit: 481 x 510 km, 64.9° (Epoch: 24 October)

Event Time Altitude Azimuth Distance (km) Brightness Sun altitude
Rises 17:39:49 0° 288° (WNW) 2,595 ? -8.0°
Reaches altitude 10° 17:42:39 10° 310° (NW) 1,719 ? -8.5°
Maximum altitude 17:45:07 16° 350° (N) 1,382 ? -8.8°
Drops below altitude 10° 17:47:36 10° 30° (NNE) 1,731 ? -9.2°
Enters shadow 17:49:55 - 50° (NE) 2,434 ? -9.5°
